DW8787 Weather Reports


time (UTC)temp
C
wind
direction
speed
KPH
gust
KPH
rain 1hr
cm
rain 24hr
cm
rain mn
cm
humidity
%
barometer
mb
20260507063047 9 296 0.0 3.2 0.00 0.00 0.00 88 1022.0
20260507061542 9 304 0.0 6.4 0.00 0.00 0.00 88 1021.9
20260507060046 10 304 0.0 3.2 0.00 0.00 0.00 87 1021.9
20260507054542 10 287 0.0 8.0 0.00 0.00 0.00 87 1022.0
20260507053040 10 278 0.0 8.0 0.00 0.00 0.00 87 1022.0
20260507051539 10 295 3.2 8.0 0.00 0.00 0.00 86 1021.9
20260507050042 10 4 3.2 11.3 0.00 0.00 0.00 86 1022.2
20260507044537 11 273 0.0 4.8 0.00 0.00 0.00 87 1022.1
20260507043038 11 335 0.0 6.4 0.00 0.00 0.00 87 1022.1
20260507041549 11 290 1.6 6.4 0.00 0.00 0.00 87 1022.1
20260507040033 11 333 0.0 8.0 0.00 0.00 0.00 87 1021.9
20260507034536 11 293 1.6 6.4 0.00 0.00 0.00 86 1021.7
20260507033035 11 266 1.6 17.7 0.00 0.00 0.00 85 1021.6
20260507031531 11 269 1.6 9.7 0.00 0.00 0.00 85 1021.5
20260507030031 11 283 1.6 8.0 0.00 0.00 0.00 84 1021.5
20260507024533 12 329 4.8 14.5 0.00 0.00 0.00 84 1021.3
20260507023030 12 276 1.6 8.0 0.00 0.00 0.00 83 1021.3
20260507021529 12 320 1.6 9.7 0.00 0.00 0.00 82 1021.3
20260507020029 12 276 0.0 8.0 0.00 0.00 0.00 81 1021.2
20260507014546 13 326 1.6 8.0 0.00 0.00 0.00 81 1021.3
20260507013040 13 229 4.8 11.3 0.00 0.00 0.00 80 1021.1
20260507011535 13 323 4.8 14.5 0.00 0.00 0.00 78 1021.1
20260507010032 13 293 3.2 12.9 0.00 0.00 0.00 78 1021.1
20260507004526 14 342 1.6 11.3 0.00 0.00 0.00 78 1021.2
20260507003026 14 326 3.2 9.7 0.00 0.00 0.00 78 1021.2
20260507001525 14 342 0.0 8.0 0.00 0.00 0.00 79 1021.3
20260507000029 15 328 4.8 11.3 0.00 0.00 0.00 77 1021.3
20260506234524 15 283 3.2 11.3 0.00 0.00 0.00 76 1021.1
20260506233029 15 245 3.2 9.7 0.00 0.00 0.00 75 1021.1
20260506231523 16 322 1.6 6.4 0.00 0.00 0.00 75 1021.2
20260506230023 16 297 3.2 16.1 0.00 0.00 0.00 75 1021.2
20260506224522 15 356 0.0 11.3 0.00 0.00 0.00 77 1021.3
20260506223019 15 329 3.2 11.3 0.00 0.00 0.00 77 1021.3
20260506221518 15 347 1.6 8.0 0.00 0.00 0.00 75 1021.4
20260506220019 15 1 0.0 4.8 0.00 0.00 0.00 76 1021.4
20260506214517 15 23 0.0 6.4 0.00 0.00 0.00 75 1021.4
20260506213016 15 323 3.2 8.0 0.00 0.00 0.00 76 1021.3
20260506211515 15 342 1.6 6.4 0.00 0.00 0.00 77 1021.3
20260506210015 15 354 1.6 6.4 0.00 0.00 0.00 79 1021.4
20260506204510 14 308 1.6 6.4 0.00 0.00 0.00 79 1021.5
20260506203008 14 37 1.6 4.8 0.00 0.00 0.00 81 1021.4
20260506201508 13 32 0.0 8.0 0.00 0.00 0.00 81 1021.3
20260506200006 13 343 1.6 4.8 0.00 0.00 0.00 81 1021.3
20260506194506 13 4 0.0 6.4 0.00 0.00 0.00 83 1021.3
20260506193001 12 131 0.0 1.6 0.00 0.00 0.00 87 1021.3
20260506191600 12 49 0.0 1.6 0.00 0.00 0.00 90 1021.5
20260506190056 11 358 0.0 4.8 0.00 0.00 0.00 91 1021.6
20260506184555 11 296 0.0 0.0 0.00 0.00 0.00 92 1021.5
20260506183054 11 302 0.0 0.0 0.00 0.00 0.00 93 1021.3
20260506181551 11 285 0.0 3.2 0.00 0.00 0.00 94 1021.4
20260506180055 11 278 1.6 6.4 0.00 0.00 0.00 94 1021.2
20260506174548 11 308 0.0 3.2 0.00 0.00 0.00 95 1021.1
20260506173053 11 341 0.0 0.0 0.00 0.00 0.00 96 1021.1
20260506171552 11 285 0.0 1.6 0.00 0.00 0.00 96 1021.1
20260506170043 11 352 0.0 3.2 0.00 0.00 0.00 97 1021.0
20260506164542 10 305 0.0 1.6 0.00 0.00 0.00 97 1020.9
20260506163047 10 35 0.0 6.4 0.00 0.00 0.00 97 1020.8
20260506161551 10 83 0.0 3.2 0.00 0.00 0.00 97 1020.6
20260506160037 10 94 0.0 3.2 0.00 0.00 0.00 97 1020.6
20260506154537 10 13 0.0 3.2 0.00 0.00 0.00 97 1020.6
20260506153038 10 355 0.0 1.6 0.00 0.00 0.00 97 1020.7
20260506151535 10 356 0.0 1.6 0.00 0.00 0.00 97 1020.6
20260506150035 10 356 0.0 0.0 0.00 0.00 0.00 97 1020.6
20260506144530 10 347 0.0 3.2 0.00 0.00 0.00 97 1020.4
20260506143030 10 100 1.6 3.2 0.00 0.00 0.00 97 1020.0
20260506141529 10 101 0.0 3.2 0.00 0.00 0.00 97 1020.0
20260506140028 10 281 0.0 0.0 0.00 0.00 0.00 97 1020.0
20260506134603 10 281 0.0 0.0 0.00 0.00 0.00 97 1020.2
20260506133026 10 245 0.0 1.6 0.00 0.00 0.00 96 1020.3
20260506131528 10 340 0.0 1.6 0.00 0.00 0.00 96 1020.0
20260506130024 10 310 0.0 1.6 0.00 0.00 0.00 96 1019.8
20260506124522 10 333 0.0 1.6 0.00 0.00 0.00 96 1019.8
20260506123021 10 333 0.0 1.6 0.00 0.00 0.00 96 1019.6
20260506121518 10 333 0.0 1.6 0.00 0.00 0.00 96 1019.5
20260506120018 10 333 0.0 0.0 0.00 0.00 0.00 96 1019.5
20260506114524 10 333 0.0 1.6 0.00 0.00 0.00 95 1019.4
20260506113018 10 332 0.0 0.0 0.00 0.00 0.00 95 1019.3
20260506111515 10 332 0.0 1.6 0.00 0.00 0.00 95 1019.3
20260506110016 10 321 0.0 1.6 0.00 0.00 0.00 95 1019.2
20260506104514 10 349 0.0 3.2 0.00 0.00 0.00 95 1019.2
20260506103021 10 250 0.0 1.6 0.00 0.00 0.00 94 1018.9
20260506101509 10 283 0.0 3.2 0.00 0.00 0.00 93 1018.8
20260506100009 10 251 0.0 1.6 0.00 0.00 0.00 93 1018.6
20260506094514 10 265 0.0 0.0 0.00 0.00 0.00 92 1018.6
20260506093007 11 274 0.0 1.6 0.00 0.00 0.00 92 1018.6
20260506091506 11 308 0.0 0.0 0.00 0.00 0.00 92 1018.6
20260506090006 11 308 0.0 3.2 0.00 0.00 0.00 93 1018.4
20260506084505 11 276 0.0 3.2 0.00 0.00 0.00 93 1018.4
20260506083005 11 296 0.0 0.0 0.00 0.00 0.00 94 1018.3
20260506081604 11 296 0.0 0.0 0.00 0.00 0.00 94 1018.2
20260506073050 10 258 0.0 0.0 0.00 0.00 0.00 96 1017.7
20260506071552 10 273 0.0 0.0 0.00 0.00 0.00 96 1017.8